Погода в Петровке

Россия / Республика Башкортостан     52°21′10″N   57°26′48″E
темп.,
°C
ветер,
м/с
пор.,
м/с
влажн.,
%
обл.,
%
осадки,
мм/ч
давл.,
гПа
погр.,
м
21 июня, пн
пн2123:00+18ссз411740 0.0 1018846
02:00+13с27590 0.0 1019126
05:00+10с22730 0.0 102132
08:00+17с37420 0.0 1021434
11:00+22с47305 0.0 10211385
14:00+25с48295 0.0 10212017
17:00+25с46310 0.0 10212073
20:00+21ссз24576 0.0 102196
22 июня, вт
вт2223:00+15ссз257311 0.0 102388
02:00+14ссз227629 0.1 102220
05:00+13зсз22915 0.4 102319
08:00+18зсз38781 0.0 1022341
11:00+25сз46514 0.0 10211526
14:00+27сз564463 0.1 10202267
17:00+26ссз364392 0.1 10191473
20:00+23ссз496242 0.0 1020562
23 июня, ср
ср2323:00+17ссз26865 0.0 1020115
02:00+16сз29943 0.4 1020143
05:00+15зсз24940 0.4 102074
08:00+21сз37802 0.0 1019267
11:00+26сз57475 0.1 10181392
14:00+28сз564164 0.1 10172402
17:00+22всв577495 0.7 1018833
20:00+18юв2495100 1.4 1018290
24 июня, чт
чт2423:00+15ююв1198100 1.5 101818
02:00+14юв119812 0.1 101810
05:00+13юв119923 0.1 101810
08:00+17в129584 0.0 1018345
11:00+16вюв339097 0.1 1018372
14:00+23св125973 0.0 10171252
17:00+22всв236487 0.1 1017385
20:00+21юв016989 0.0 101729
25 июня, пт
пт2523:00+16ююз11892 0.0 101711
02:00+14з11935 0.0 101711
05:00+14зсз11935 0.0 101711
08:00+20з24683 0.0 1017347
11:00+25з22462 0.0 10151322
14:00+28зсз33345 0.0 10142040
17:00+28зсз44355 0.0 10132010
20:00+24сз37612 0.0 1013437